Tracking 31027 objects as of 19-Jul-2025
HD Live streaming from Space Station
objects crossing your sky now

STARLINK-32936

Track STARLINK-32936 now!
10-day predictions
STARLINK-32936 is classified as:


NORAD ID: 63147
Int'l Code: 2025-043R
Perigee: 488.9 km
Apogee: 491.4 km
Inclination: 43.0 °
Period: 94.3 minutes
Semi major axis: 6861 km
RCS: Unknown
Launch date: March 2, 2024
Source: United States (US)
Launch site: AIR FORCE EASTERN TEST RANGE (AFETR)
Your satellite tracking list
CZ-3A R/B
Track 1 satellite(s)




NASA's NSSDC Master Catalog

Two Line Element Set (TLE):
1 63147U 25043R   25199.54366464  .00015296  00000-0  56392-3 0  9990
2 63147  42.9995 265.4136 0001783 267.9416  92.1232 15.27596885 21471
Source of the keplerian elements: AFSPC